Regional Weather Roundup
Issued by NWS

Home | Current Version | Previous Version | Graphics & Text | Print | Product List | Glossary On
Versions: 1 2 3 4 5 6 7 8 9 10 11 12 13 14 15 16 17 18 19 20 21 22 23 24 25 26 27 28 29 30 31 32 33 34 35 36 37 38 39 40 41 42 43 44 45 46 47 48 49 50
000
ASUS45 KTFX 220110
RWRMT
MONTANA REGIONAL WEATHER ROUNDUP
NATIONAL WEATHER SERVICE GREAT FALLS MT
600 PM MST TUE FEB 21 2017

NOTE: "FAIR" INDICATES FEW OR NO CLOUDS BELOW 12000 FEET WITH NO
SIGNIFICANT WEATHER AND/OR OBSTRUCTIONS TO VISIBILITY.

MTZ001>007-043-220200-
WEST OF THE DIVIDE

CITY           SKY/WX    TMP DP  RH WIND       PRES   REMARKS
KALISPELL      LGT SNOW  33  32  96 SE5       29.71R FOG
MISSOULA       CLOUDY    36  35  96 SW7       29.74R WCI  30
BUTTE          CLOUDY    40  17  39 SW12      29.72S
MULLAN PASS    SNOW      25  25 100 VRB7      29.70R VSB 1/4 WCI  17
ANACONDA         N/A     39  18  41 S16       29.70R WCI  30
DEER LODGE       N/A     43  19  39 S10G20    29.69F
EUREKA           N/A     34  32  93 CALM      29.75R
HAMILTON         N/A     46  25  42 W20G29    29.72R
LIBBY            N/A     36  36 100 CALM      29.76R
PLAINS           N/A     36  30  79 SW5       29.77R
RONAN            N/A     36  34  92 SE2       29.76R
$$

MTZ008-052>055-220200-
SOUTHWEST MONTANA

CITY           SKY/WX    TMP DP  RH WIND       PRES   REMARKS
BOZEMAN        MOCLDY    44  24  45 SW20      29.72R
DILLON         MOCLDY    35  24  64 SW22      29.77R WCI  23
W YELLOWSTONE  CLOUDY    32  27  80 SW17G28   29.83F WCI  21
ENNIS          CLEAR     37  23  56 S3        29.82F
THREE FORKS      N/A     46  46 100 SW16      29.73R
TWIN BRIDGES     N/A     38  22  52 S21       29.77R WCI  28
$$

MTZ009-010-012-014-046-048-049-054-220200-
EAST SLOPES AND CENTRAL MONTANA

CITY           SKY/WX    TMP DP  RH WIND       PRES   REMARKS
CUT BANK       LGT SNOW  32  32 100 NE5       29.66R FOG
GREAT FALLS    LGT RAIN  36  35  96 N6        29.65R VSB 1/4 WCI  31
MALMSTROM AFB  LGT RAIN  36  36 100 N8        29.66R WCI  29
HELENA         PTCLDY    49  19  30 SW9G22    29.64R
AUGUSTA        FOG       32  32 100 N7        29.62S VSB 1/8 WCI  26
BOWMANS CRNR   MOCLDY    36  34  92 S8        29.62S WCI  30
CHOTEAU          N/A     32  32 100 NE7       29.65F FOG     WCI  26
CONRAD           N/A     33  33 100 MISG      29.70S VSB 0
POWER          MOCLDY    35  34  97 E5        29.63S
RAYNESFORD     MOCLDY    38  34  85 CALM      29.62S
ULM            LGT RAIN  40  37  86 MISG      29.66R
$$

MTZ011-013-016-021-045-047-050-051-220200-
NORTH CENTRAL MONTANA

CITY           SKY/WX    TMP DP  RH WIND       PRES   REMARKS
HAVRE          CLOUDY    37  36  96 CALM      29.68F
LEWISTOWN      CLOUDY    36  32  85 W5        29.62F
N BAR RANCH      N/A     36  28  75 SW5       29.66F
CHINOOK          N/A     37  37 100 CALM      29.69S
DENTON         MOCLDY    38  35  88 E12       29.61R WCI  31
FORT BENTON      N/A     37  34  87 CALM      29.68R
GEYSER         MOCLDY    36  33  88 NE7       29.62R WCI  30
GRASS RANGE      N/A     39  33  78 W10       29.59S
JUDITH GAP       N/A     37  29  73 W14       29.62F WCI  29
ROY            MOCLDY    39  35  87 MISG      29.63R
STANFORD         N/A     37  33  88 N8        29.62S WCI  30
WINIFRED         N/A     39  36  87 NW6       29.63R
$$

MTZ017>020-022>027-061-062-220200-
NORTHEAST MONTANA

CITY           SKY/WX    TMP DP  RH WIND       PRES   REMARKS
GLASGOW        CLOUDY    38  35  89 VRB7      29.66S
JORDAN           N/A     40  36  86 N14       29.64F
SIDNEY         CLOUDY    41  36  82 NW10      29.68R
WOLF POINT     CLOUDY    39  35  86 VRB3      29.67F
PLENTYWOOD       N/A     34  34 100 N9        29.70R WCI  26
POPLAR           N/A     37  36  93 E3        29.68S
SCOBEY           N/A     32  26  78 W2        29.69S
$$

MTZ028>42-056>058-220200-
SOUTHCENTRAL AND SOUTHEAST MONTANA

CITY           SKY/WX    TMP DP  RH WIND       PRES   REMARKS
BAKER          MOCLDY    48  41  76 NW18G24   29.65F
BILLINGS       MOCLDY    51  22  31 NW12      29.66R
LIVINGSTON     CLOUDY    46  22  38 W21G31    29.67R
MILES CITY     CLOUDY    44  39  82 SW5       29.63R
BIG TIMBER     PTCLDY    46  19  34 W29G38    29.69R
FORSYTH          N/A     52  36  54 NW6G20    29.65R
HARLOWTON      MOCLDY    43  24  46 SW9       29.66R
LAUREL           N/A     51  23  33 SW8       29.69R
$$

REGIONAL REPORTS...DAKOTAS

CITY           SKY/WX    TMP DP  RH WIND       PRES   REMARKS
WILLISTON      LGT RAIN  40  32  73 W12       29.68R
MINOT          PTCLDY    41  35  79 CALM      29.65R
DICKINSON      RAIN      45  37  73 W30G41    29.69R
BEACH            N/A    N/A N/A N/A MISG        N/A
CROSBY         CLOUDY    32  32 100 NW9       29.72R FOG     WCI  24
TIOGA          MOCLDY    36  36 100 NW7       29.68R WCI  30
WATFORD CITY   CLOUDY    37  37 100 CALM      29.68R
BISMARCK       CLOUDY    42  37  82 NE8       29.65S
GRAND FORKS    FOG       34  30  85 NW6       29.69R VSB 1/4 WCI  29
FARGO          CLOUDY    41  40  96 CALM      29.68R
BUFFALO SD       N/A     59  23  25 W31G40    29.60R
RAPID CITY     PTCLDY    57  31  37 NW17      29.68R
$$

REGIONAL REPORTS...WYOMING/IDAHO/WASHINGTON

CITY           SKY/WX    TMP DP  RH WIND       PRES   REMARKS
GILLETTE       CLOUDY    52  33  48 W12       29.74R
SHERIDAN       CLOUDY    50  27  40 W28G35    29.74R
BUFFALO WY     CLOUDY    49  30  48 SW10      29.76R
CODY           CLOUDY    41  26  55 SW14G24   29.79F
YELLOWSTONE LA   N/A     25  23  92 MISG      29.84F
IDAHO FALLS    CLOUDY    37  32  82 SW20      29.92S WCI  27
SALMON         CLOUDY    39  25  56 S21G29    29.79R WCI  29
BOISE          CLOUDY    48  29  47 NW14      29.95R
SPOKANE        LGT SNOW  33  32  96 SW10      29.85R FOG     WCI  25
$$

REGIONAL REPORTS...ALBERTA

CITY           SKY/WX    TMP DP  RH WIND       PRES   REMARKS
EDMONTON       CLEAR     30  27  86 N6        29.73R WCI  24
CALGARY        CLOUDY    30  25  80 S6        29.68R HAZE    WCI  24
LETHBRIDGE     CLOUDY    34  32  93 NW3       29.70R
MEDICINE HAT   CLOUDY    37  32  81 NE7       29.71R
WATERTON GATE    N/A     32  30  93 E2          N/A
CARDSTON         N/A     30  30 100 CALM        N/A
MILK RIVER       N/A     34  32  93 N5          N/A
ONEFOUR          N/A     32  32 100 E5          N/A
$$

REGIONAL REPORTS...SASKATCHEWAN

CITY           SKY/WX    TMP DP  RH WIND       PRES   REMARKS
SWIFT CURRENT  CLOUDY    30  28  93 NE7       29.71S WCI  23
REGINA         CLOUDY    34  27  75 N9        29.73R WCI  26
SASKATOON      CLOUDY    32  25  74 NW5       29.78R
CYPRESS HILLS    N/A     30  27  86 E3          N/A
VAL MARIE        N/A     32  30  93 NE7         N/A  WCI  26
ROCKGLEN         N/A     34  30  86 N7          N/A  WCI  28
ASSINIBOIA       N/A     34  30  86 N7          N/A  WCI  28
$$



USA.gov is the U.S. government's official web portal to all federal, state and local government web resources and services.